EW8125 Weather Reports


time (UTC)temp
C
wind
direction
speed
KPH
gust
KPH
rain 1hr
cm
rain 24hr
cm
rain mn
cm
humidity
%
barometer
mb
20260502200005 10 0 0.0 0.0 0.43 1.45 1.45 93 1010.7
20260502195914 10 0 0.0 0.0 0.46 1.45 1.45 93 1010.6
20260502195403 10 131 0.0 1.6 0.51 1.45 1.45 93 1010.7
20260502195103 10 131 0.0 1.6 0.51 1.45 1.45 93 1010.7
20260502194803 10 131 0.0 1.6 0.53 1.45 1.45 93 1010.7
20260502194713 10 131 0.0 1.6 0.56 1.45 1.45 93 1010.7
20260502194203 11 131 0.0 1.6 0.58 1.42 1.42 93 1010.7
20260502193905 11 131 0.0 1.6 0.61 1.42 1.42 93 1010.7
20260502193603 11 0 0.0 0.0 0.61 1.40 1.40 93 1010.7
20260502193303 11 0 0.0 0.0 0.61 1.40 1.40 93 1010.7
20260502193005 11 0 0.0 0.0 0.61 1.37 1.37 93 1010.6
20260502192703 11 0 0.0 0.0 0.61 1.37 1.37 93 1010.7
20260502192403 11 0 0.0 0.0 0.58 1.35 1.35 93 1010.8
20260502192103 11 0 0.0 0.0 0.58 1.32 1.32 93 1010.7
20260502191803 11 0 0.0 0.0 0.53 1.27 1.27 93 1010.8
20260502191713 11 0 0.0 0.0 0.53 1.27 1.27 93 1010.8
20260502191203 11 0 0.0 0.0 0.48 1.19 1.19 93 1010.9
20260502190903 11 0 0.0 0.0 0.43 1.14 1.17 93 1011.0
20260502190603 11 0 0.0 0.0 0.38 1.09 1.09 93 1011.1
20260502190514 11 0 0.0 0.0 0.38 1.09 1.09 93 1011.1
20260502190004 11 0 0.0 0.0 0.33 1.02 1.02 93 1011.1
20260502185703 11 0 0.0 0.0 0.28 0.99 0.99 93 1011.1
20260502185613 11 0 0.0 0.0 0.25 0.97 0.99 93 1011.1
20260502185103 11 132 0.0 1.6 0.23 0.91 0.91 92 1011.1
20260502184804 11 132 0.0 1.6 0.23 0.89 0.89 92 1011.0
20260502184503 11 131 0.0 1.6 0.23 0.86 0.89 92 1010.9
20260502184203 11 154 0.0 1.6 0.20 0.84 0.84 92 1010.9
20260502183903 11 154 0.0 1.6 0.20 0.81 0.81 92 1010.9
20260502183603 12 154 0.0 1.6 0.20 0.79 0.79 92 1010.9
20260502183303 12 139 0.0 1.6 0.18 0.79 0.79 92 1010.8
20260502183003 12 103 0.0 1.6 0.18 0.76 0.76 92 1010.7
20260502182703 12 340 0.0 1.6 0.20 0.76 0.76 92 1010.7
20260502182403 12 340 0.0 1.6 0.23 0.76 0.76 92 1010.6
20260502182103 12 0 0.0 0.0 0.20 0.74 0.74 92 1010.7
20260502181804 12 341 0.0 1.6 0.23 0.74 0.74 92 1010.6
20260502181503 12 341 0.0 1.6 0.23 0.71 0.71 92 1010.6
20260502181203 12 341 0.0 1.6 0.23 0.71 0.71 92 1010.6
20260502180903 12 341 0.0 1.6 0.23 0.71 0.71 92 1010.7
20260502180603 12 0 0.0 0.0 0.25 0.71 0.71 92 1010.8
20260502180303 12 0 0.0 0.0 0.28 0.71 0.71 92 1010.8
20260502170303 13 0 0.0 0.0 0.43 0.43 0.43 90 1011.9
20260502164203 13 342 0.0 1.6 0.28 0.30 0.30 89 1012.3
20260502163903 13 342 0.0 1.6 0.25 0.28 0.28 88 1012.2
20260502163603 13 0 0.0 0.0 0.23 0.25 0.25 88 1012.3
20260502163303 13 0 0.0 0.0 0.20 0.23 0.23 87 1012.3
20260502163003 13 350 0.0 1.6 0.18 0.20 0.20 87 1012.4
20260502162703 14 350 0.0 1.6 0.15 0.18 0.18 86 1012.3
20260502162403 14 359 0.0 1.6 0.13 0.15 0.15 85 1012.2
20260502162105 14 4 0.0 1.6 0.10 0.13 0.13 84 1012.3
20260502161804 14 9 0.0 1.6 0.05 0.08 0.08 83 1012.2
20260502161503 15 12 0.0 1.6 0.05 0.05 0.08 81 1012.3
20260502161203 15 12 0.0 1.6 0.05 0.05 0.05 81 1012.2
20260502160903 15 12 0.0 1.6 0.03 0.05 0.05 80 1012.2
20260502160603 15 0 0.0 0.0 0.00 0.03 0.03 78 1012.2
20260502160303 15 0 0.0 0.0 0.00 0.03 0.03 77 1012.2
20260502152103 16 72 0.0 1.6 0.00 0.03 0.03 72 1012.2
20260502151803 17 72 0.0 1.6 0.00 0.03 0.03 71 1012.2
20260502151503 17 72 0.0 1.6 0.00 0.03 0.03 69 1012.3
20260502151203 17 0 0.0 0.0 0.00 0.03 0.03 69 1012.3
20260502150903 17 0 0.0 0.0 0.00 0.03 0.03 71 1012.4
20260502150813 17 0 0.0 0.0 0.00 0.03 0.03 72 1012.4
20260502150303 17 72 0.0 1.6 0.00 0.03 0.03 73 1012.6
20260502130603 18 181 0.0 4.8 0.00 0.23 0.03 61 1014.0
20260502130303 18 181 0.0 4.8 0.00 0.23 0.03 60 1014.1
20260502123814 18 127 0.0 4.8 0.00 0.23 0.03 62 1014.6
20260502123303 18 107 1.6 4.8 0.00 0.23 0.03 61 1014.8
20260502123003 18 97 1.6 4.8 0.00 0.23 0.03 62 1014.7
20260502122703 18 104 0.0 4.8 0.00 0.23 0.03 60 1014.7
20260502122403 18 149 0.0 4.8 0.00 0.23 0.03 61 1014.8
20260502122103 18 233 0.0 3.2 0.00 0.23 0.03 61 1014.9
20260502121803 18 240 0.0 3.2 0.00 0.23 0.03 61 1014.9
20260502121503 19 67 0.0 4.8 0.00 0.23 0.03 60 1014.9
20260502121203 19 78 0.0 4.8 0.00 0.23 0.03 63 1015.0
20260502120904 19 60 0.0 4.8 0.00 0.23 0.03 61 1014.9
20260502120603 18 75 0.0 3.2 0.00 0.23 0.03 66 1015.0
20260502120303 18 88 1.6 6.4 0.00 0.23 0.03 67 1015.0
20260502115913 18 103 1.6 6.4 0.00 0.23 0.03 60 1015.2
20260502115612 18 134 1.6 6.4 0.00 0.23 0.03 58 1015.2
20260502115104 18 121 0.0 6.4 0.00 0.23 0.03 63 1015.2
20260502114803 18 129 1.6 6.4 0.00 0.23 0.03 62 1015.1
20260502114503 18 196 0.0 3.2 0.00 0.23 0.03 62 1015.2
20260502114203 18 231 0.0 3.2 0.00 0.23 0.03 62 1015.3
20260502113903 18 254 0.0 4.8 0.00 0.23 0.03 64 1015.3
20260502113603 17 244 0.0 4.8 0.00 0.23 0.03 65 1015.4
20260502113303 18 243 0.0 4.8 0.00 0.23 0.03 64 1015.4
20260502113003 17 234 0.0 3.2 0.00 0.23 0.03 63 1015.6
20260502112703 17 202 0.0 8.0 0.00 0.23 0.03 66 1015.6
20260502112403 17 188 0.0 8.0 0.00 0.23 0.03 67 1015.6
20260502112314 17 188 0.0 8.0 0.00 0.23 0.03 66 1015.6
20260502111803 17 174 1.6 9.7 0.00 0.23 0.03 66 1015.7
20260502111503 17 175 1.6 9.7 0.00 0.23 0.03 67 1015.8
20260502111203 17 176 1.6 9.7 0.00 0.23 0.03 62 1015.8
20260502110903 17 174 1.6 9.7 0.00 0.23 0.03 64 1015.8
20260502110603 17 122 0.0 4.8 0.00 0.23 0.03 64 1015.8
20260502110303 17 219 0.0 3.2 0.00 0.23 0.03 68 1015.8
20260502110003 17 204 0.0 3.2 0.00 0.23 0.03 67 1015.8
20260502105703 17 174 0.0 3.2 0.00 0.23 0.03 67 1015.8
20260502105403 17 169 0.0 3.2 0.00 0.23 0.03 67 1015.8
20260502105103 17 145 0.0 3.2 0.00 0.23 0.03 68 1015.7
20260502104803 17 164 0.0 3.2 0.00 0.23 0.03 67 1015.8
20260502104503 17 189 0.0 3.2 0.00 0.23 0.03 68 1015.8
20260502104413 17 187 0.0 3.2 0.00 0.23 0.03 69 1015.8
20260502103903 17 87 0.0 4.8 0.00 0.23 0.03 67 1015.8
20260502103604 17 92 0.0 4.8 0.00 0.23 0.03 69 1016.0
20260502103305 17 101 1.6 4.8 0.00 0.23 0.03 67 1016.0
20260502103003 17 113 0.0 3.2 0.00 0.23 0.03 69 1016.1
20260502102703 17 123 0.0 3.2 0.00 0.23 0.03 69 1016.1
20260502102403 17 147 0.0 6.4 0.00 0.23 0.03 71 1016.1
20260502102103 16 154 0.0 6.4 0.00 0.23 0.03 70 1016.2
20260502101803 16 157 0.0 6.4 0.00 0.23 0.03 72 1016.2
20260502101503 16 144 0.0 3.2 0.00 0.23 0.03 71 1016.1
20260502101203 16 148 0.0 3.2 0.00 0.23 0.03 73 1016.2
20260502100903 16 175 0.0 3.2 0.00 0.23 0.03 71 1016.2
20260502100603 16 305 0.0 1.6 0.00 0.23 0.03 73 1016.1
20260502100303 16 285 0.0 1.6 0.00 0.23 0.03 73 1016.2
20260502100214 16 284 0.0 1.6 0.00 0.23 0.03 74 1016.3
20260502091503 15 48 0.0 3.2 0.00 0.23 0.03 79 1016.5
20260502091205 15 47 0.0 3.2 0.00 0.23 0.03 80 1016.5
20260502090903 15 47 0.0 3.2 0.00 0.23 0.03 81 1016.7
20260502090603 15 46 0.0 3.2 0.00 0.23 0.03 81 1016.7
20260502090303 15 47 0.0 6.4 0.00 0.23 0.03 80 1016.6
20260502071503 8 0 0.0 0.0 0.00 0.23 0.03 95 1017.4
20260502071204 8 0 0.0 0.0 0.00 0.23 0.03 95 1017.3
20260502070904 8 280 0.0 1.6 0.00 0.23 0.03 95 1017.3
20260502070603 8 280 0.0 1.6 0.00 0.23 0.03 96 1017.3
20260502070303 8 280 0.0 1.6 0.00 0.23 0.03 96 1017.3
20260502070004 8 0 0.0 0.0 0.00 0.23 0.03 96 1017.3
20260502065703 8 0 0.0 0.0 0.00 0.23 0.03 96 1017.3
20260502065403 7 0 0.0 0.0 0.00 0.23 0.03 96 1017.4
20260502065103 7 0 0.0 0.0 0.00 0.23 0.03 96 1017.4
20260502064803 7 0 0.0 0.0 0.00 0.23 0.03 96 1017.5
20260502064503 6 0 0.0 0.0 0.00 0.23 0.03 96 1017.5
20260502064203 6 0 0.0 0.0 0.00 0.23 0.03 96 1017.4
20260502063904 6 0 0.0 0.0 0.00 0.23 0.03 96 1017.5
20260502063603 6 0 0.0 0.0 0.00 0.23 0.03 96 1017.5
20260502063303 6 0 0.0 0.0 0.00 0.23 0.03 96 1017.5
20260502063003 6 0 0.0 0.0 0.00 0.23 0.03 96 1017.5
20260502062704 6 0 0.0 0.0 0.00 0.23 0.03 96 1017.5
20260502062403 6 0 0.0 0.0 0.00 0.23 0.03 96 1017.6
20260502062103 6 0 0.0 0.0 0.00 0.23 0.03 96 1017.6
20260502061803 5 0 0.0 0.0 0.00 0.23 0.03 96 1017.6
20260502061714 5 0 0.0 0.0 0.00 0.23 0.03 96 1017.6
20260502061203 5 0 0.0 0.0 0.00 0.23 0.03 95 1017.5
20260502060903 5 0 0.0 0.0 0.00 0.23 0.03 95 1017.5
20260502060603 5 0 0.0 0.0 0.00 0.23 0.03 95 1017.6
20260502060303 5 0 0.0 0.0 0.00 0.23 0.03 95 1017.5
20260502060003 5 0 0.0 0.0 0.00 0.23 0.03 95 1017.5
20260502055913 5 0 0.0 0.0 0.00 0.23 0.03 95 1017.5
20260502055403 5 0 0.0 0.0 0.00 0.23 0.03 95 1017.4
20260502055103 5 0 0.0 0.0 0.00 0.23 0.03 95 1017.4
20260502054803 5 0 0.0 0.0 0.00 0.23 0.03 95 1017.3
20260502054503 5 0 0.0 0.0 0.00 0.23 0.03 95 1017.3
20260502054204 5 0 0.0 0.0 0.00 0.23 0.03 95 1017.3
20260502054113 5 0 0.0 0.0 0.00 0.23 0.03 95 1017.3
20260502053603 5 0 0.0 0.0 0.00 0.23 0.03 95 1017.3
20260502053303 5 0 0.0 0.0 0.00 0.23 0.03 95 1017.3
20260502053003 5 0 0.0 0.0 0.00 0.23 0.03 95 1017.3
20260502052912 5 0 0.0 0.0 0.00 0.23 0.03 95 1017.3
20260502052403 5 0 0.0 0.0 0.00 0.23 0.03 95 1017.4
20260502052314 5 0 0.0 0.0 0.00 0.23 0.03 95 1017.4
20260502051804 4 0 0.0 0.0 0.00 0.23 0.03 95 1017.3
20260502051503 4 0 0.0 0.0 0.00 0.23 0.03 95 1017.2
20260502051203 4 0 0.0 0.0 0.00 0.23 0.03 95 1017.3
20260502050904 4 0 0.0 0.0 0.00 0.23 0.03 95 1017.4
20260502050603 4 0 0.0 0.0 0.00 0.23 0.03 95 1017.4
20260502050303 4 0 0.0 0.0 0.00 0.23 0.03 95 1017.5
20260502050212 4 0 0.0 0.0 0.00 0.23 0.03 95 1017.5
20260502045703 4 0 0.0 0.0 0.00 0.23 0.03 96 1017.4
20260502045403 4 0 0.0 0.0 0.00 0.23 0.03 96 1017.4
20260502045103 4 0 0.0 0.0 0.00 0.23 0.03 96 1017.5
20260502044803 4 0 0.0 0.0 0.00 0.23 0.03 96 1017.5
20260502044715 4 0 0.0 0.0 0.00 0.23 0.03 96 1017.5
20260502044203 4 0 0.0 0.0 0.00 0.23 0.03 95 1017.3
20260502043903 4 0 0.0 0.0 0.00 0.23 0.03 95 1017.3
20260502043603 4 0 0.0 0.0 0.00 0.23 0.03 95 1017.3
20260502043303 3 0 0.0 0.0 0.00 0.23 0.03 95 1017.4
20260502043003 4 0 0.0 0.0 0.00 0.23 0.03 95 1017.3
20260502042703 4 0 0.0 0.0 0.00 0.23 0.03 95 1017.3
20260502042403 4 0 0.0 0.0 0.00 0.23 0.03 95 1017.3
20260502042103 4 0 0.0 0.0 0.00 0.23 0.03 95 1017.4
20260502041803 4 0 0.0 0.0 0.00 0.23 0.03 95 1017.4
20260502041503 4 0 0.0 0.0 0.00 0.23 0.03 96 1017.5
20260502041413 4 0 0.0 0.0 0.00 0.23 0.03 96 1017.4
20260502040903 4 0 0.0 0.0 0.00 0.23 0.03 96 1017.5
20260502040603 4 0 0.0 0.0 0.00 0.23 0.03 96 1017.6
20260502040303 4 0 0.0 0.0 0.00 0.23 0.03 95 1017.6
20260502040003 4 0 0.0 0.0 0.00 0.23 0.03 95 1017.6
20260502035703 4 0 0.0 0.0 0.00 0.23 0.03 95 1017.7
20260502035404 4 0 0.0 0.0 0.00 0.23 0.03 95 1017.8
20260502035103 4 0 0.0 0.0 0.00 0.23 0.03 95 1017.8
20260502034803 4 0 0.0 0.0 0.00 0.23 0.03 95 1017.8
20260502034503 4 0 0.0 0.0 0.00 0.23 0.03 95 1017.8
20260502034203 4 0 0.0 0.0 0.00 0.23 0.03 95 1017.7
20260502033903 4 0 0.0 0.0 0.00 0.23 0.03 95 1017.9
20260502033603 4 0 0.0 0.0 0.03 0.23 0.03 95 1017.7
20260502033303 4 0 0.0 0.0 0.03 0.23 0.03 95 1017.7
20260502033214 4 0 0.0 0.0 0.03 0.23 0.03 95 1017.7
20260502032703 5 0 0.0 0.0 0.03 0.23 0.03 95 1017.8
20260502032403 5 0 0.0 0.0 0.03 0.23 0.03 95 1017.8
20260502032103 5 0 0.0 0.0 0.03 0.23 0.03 95 1017.7
20260502031803 5 0 0.0 0.0 0.03 0.23 0.03 95 1017.8
20260502031503 5 0 0.0 0.0 0.03 0.23 0.03 95 1017.8
20260502031203 5 0 0.0 0.0 0.03 0.23 0.03 96 1017.8
20260502031112 5 0 0.0 0.0 0.03 0.23 0.03 96 1017.8
20260502030603 5 0 0.0 0.0 0.03 0.23 0.03 96 1017.8
20260502030303 5 0 0.0 0.0 0.03 0.23 0.03 95 1017.9
20260502030214 5 0 0.0 0.0 0.03 0.23 0.03 95 1017.9
20260502025703 5 0 0.0 0.0 0.03 0.23 0.03 95 1017.9
20260502025403 5 0 0.0 0.0 0.03 0.23 0.03 95 1017.9
20260502025103 5 0 0.0 0.0 0.03 0.23 0.03 95 1017.9
20260502024803 5 0 0.0 0.0 0.03 0.23 0.03 95 1017.9
20260502024503 5 0 0.0 0.0 0.03 0.23 0.03 95 1017.9
20260502024204 5 0 0.0 0.0 0.03 0.23 0.03 95 1017.9
20260502024114 5 0 0.0 0.0 0.03 0.23 0.03 95 1017.9
20260502023604 5 0 0.0 0.0 0.00 0.23 0.00 95 1017.9
20260502023514 5 0 0.0 0.0 0.00 0.23 0.00 95 1017.9
20260502023003 6 0 0.0 0.0 0.00 0.23 0.00 96 1017.8
20260502022703 6 0 0.0 0.0 0.00 0.23 0.00 96 1017.9
20260502022613 6 0 0.0 0.0 0.00 0.23 0.00 96 1017.9
20260502022103 6 0 0.0 0.0 0.00 0.23 0.00 96 1017.9
20260502021803 6 0 0.0 0.0 0.00 0.23 0.00 96 1018.1
20260502021504 6 0 0.0 0.0 0.00 0.23 0.00 96 1018.0
20260502021203 6 0 0.0 0.0 0.00 0.23 0.00 96 1018.1
20260502020903 6 0 0.0 0.0 0.00 0.23 0.00 95 1018.0
20260502020603 5 0 0.0 0.0 0.00 0.23 0.00 95 1018.0
20260502020303 5 0 0.0 0.0 0.00 0.23 0.00 95 1018.1
20260502020213 5 0 0.0 0.0 0.00 0.23 0.00 95 1018.1
20260502015704 5 0 0.0 0.0 0.00 0.23 0.00 95 1018.2
20260502015403 5 0 0.0 0.0 0.00 0.23 0.00 95 1018.2
20260502015103 5 0 0.0 0.0 0.00 0.23 0.00 95 1018.2
20260502014803 5 0 0.0 0.0 0.00 0.23 0.00 95 1018.1
20260502014504 6 0 0.0 0.0 0.00 0.23 0.00 95 1018.2
20260502014203 6 0 0.0 0.0 0.00 0.23 0.00 95 1018.1
20260502014114 6 0 0.0 0.0 0.00 0.23 0.00 95 1018.1
20260502013603 6 0 0.0 0.0 0.00 0.23 0.00 95 1018.2
20260502013303 6 0 0.0 0.0 0.00 0.23 0.00 95 1018.2
20260502013004 6 0 0.0 0.0 0.00 0.23 0.00 95 1018.2
20260502012703 6 0 0.0 0.0 0.00 0.23 0.00 95 1018.3
20260502012403 6 0 0.0 0.0 0.00 0.23 0.00 95 1018.3
20260502012104 6 0 0.0 0.0 0.00 0.23 0.00 95 1018.3
20260502011803 6 0 0.0 0.0 0.00 0.23 0.00 95 1018.4
20260502011503 6 0 0.0 0.0 0.00 0.23 0.00 95 1018.4
20260502011203 6 0 0.0 0.0 0.00 0.23 0.00 94 1018.5
20260502010903 6 0 0.0 0.0 0.00 0.23 0.00 95 1018.5
20260502010603 6 0 0.0 0.0 0.00 0.23 0.00 95 1018.5
20260502010303 6 0 0.0 0.0 0.00 0.23 0.00 95 1018.5
20260502010003 6 0 0.0 0.0 0.00 0.23 0.00 95 1018.6
20260502005703 6 0 0.0 0.0 0.00 0.23 0.00 95 1018.6
20260502005403 6 0 0.0 0.0 0.00 0.23 0.00 95 1018.7
20260502005103 6 0 0.0 0.0 0.00 0.23 0.00 95 1018.7
20260502004803 6 0 0.0 0.0 0.00 0.23 0.00 95 1018.7
20260502004714 6 0 0.0 0.0 0.00 0.23 0.00 95 1018.8
20260502004414 6 0 0.0 0.0 0.00 0.23 0.00 95 1018.7
20260502003903 6 0 0.0 0.0 0.00 0.23 0.00 94 1018.8
20260502003603 6 0 0.0 0.0 0.00 0.23 0.00 94 1018.8
20260502003303 6 0 0.0 0.0 0.00 0.23 0.00 94 1018.7
20260502003003 6 0 0.0 0.0 0.00 0.23 0.00 95 1018.8
20260502002703 7 0 0.0 0.0 0.00 0.23 0.00 95 1018.7
20260502002403 7 0 0.0 0.0 0.00 0.23 0.00 95 1018.8
20260502002103 7 0 0.0 0.0 0.00 0.23 0.00 95 1018.8
20260502001803 7 0 0.0 0.0 0.00 0.23 0.00 95 1018.8
20260502001503 7 0 0.0 0.0 0.00 0.23 0.00 95 1018.8
20260502001203 6 0 0.0 0.0 0.00 0.23 0.00 95 1018.8
20260502000903 6 0 0.0 0.0 0.00 0.23 0.00 95 1018.9
20260502000603 7 0 0.0 0.0 0.00 0.23 0.00 94 1018.9
20260502000303 7 0 0.0 0.0 0.00 0.23 0.00 94 1018.8
20260502000003 7 0 0.0 0.0 0.00 0.23 0.00 94 1018.9
20260501235704 7 0 0.0 0.0 0.00 0.23 0.00 95 1018.9
20260501235403 7 0 0.0 0.0 0.00 0.23 0.00 95 1018.9
20260501235103 7 0 0.0 0.0 0.00 0.23 0.00 95 1018.9
20260501235013 7 0 0.0 0.0 0.00 0.23 0.00 95 1019.0
20260501234713 7 0 0.0 0.0 0.00 0.23 0.00 95 1019.0
20260501234203 7 0 0.0 0.0 0.00 0.23 0.00 94 1019.0
20260501233903 7 0 0.0 0.0 0.00 0.23 0.00 94 1019.1